{"data":{"norad_id":56908,"epoch":"2026-09-20T02:42:08.625312Z","epoch_age_seconds":151259,"freshness":"FRESH","line1":"1 56908U 23083AJ  26263.11259983  .00000150  00000+0  14975-4 0  9996","line2":"2 56908  43.0032  52.5908 0001134 263.2174  96.8548 15.27576298181535","mean_motion":15.27576298,"eccentricity":0.0001134,"inclination_deg":43.0032,"raan_deg":52.5908,"arg_perigee_deg":263.2174,"mean_anomaly_deg":96.8548,"bstar":1.4975e-5,"rev_number":18153,"period_min":94.266977164109,"perigee_km":482.28212142148,"apogee_km":483.83824094217,"semimajor_km":6861.1971811818,"source":"CELESTRAK","updated_at":"2026-09-21T09:00:33.526213Z"}}